User: anonymous   Login
Location: Bergen
(60.3910°N, 5.3250°E)
Time: 05:03:23
(UTC+01:00)
Language:

Cosmos 1943 - Orbit

View from above orbital plane
View from above orbital plane
View from above satellite
View from above satellite

Ground track
Ground track

The orbit data is extracted from the following two-line orbital elements,

1 19119U 88039A   17327.64075993 +.00000270 +00000-0 +16356-3 0  9995
2 19119 071.0015 126.9241 0011580 185.9022 247.8951 14.15103438524382
Epoch (UTC): 23 November 2017 15:22:41
Eccentricity: 0.0011580
inclination: 71.0015°
perigee height: 833 km
apogee height: 850 km
right ascension of ascending node: 126.9241°
argument of perigee: 185.9022°
revolutions per day: 14.15103438
mean anomaly at epoch: 247.8951°
orbit number at epoch: 52438

The dashed part of the orbit path shows where the satellite is in the earth's shadow,  

DLR